Location: Altleiningen
(49.5078°N, 8.0741°E)
Time: 04:12:40
(UTC+00:00)

OBJECT-B - Pass Details

Date: 03 March 2021
Orbit: 414 x 427 km, 97.0° (Epoch: 09 April)

Event Time Altitude Azimuth Distance (km) Brightness Sun altitude
Exits shadow 18:04:51 12° 76° (ENE) 1,384 2.7 -9.1°
Maximum altitude 18:05:30 13° 63° (ENE) 1,353 2.8 -9.2°
Drops below altitude 10° 18:07:01 10° 35° (NE) 1,515 3.2 -9.4°
Sets 18:09:53 0° 6° (N) 2,383 4.5 -9.9°
